Showing default

QPS-SAR-10 WADATSUMI-I, 64055

Orbit data source: Space-Track

QPS-SAR-10 WADATSUMI-I, 64055 is a payload satellite owned by QPS Labs (JP) in LEO that was launched on Sat, 17 May 2025 UTC via an ELECTRON launch vehicle from the Rocket Lab Launch Complex (RLLC). Payload-class satellites include a variety of spacecraft equipped with specific instruments for various scientific and technological missions. These include communications satellites like Starlink; space stations such as the ISS; scientific satellites like the Hubble; Earth observation satellites from companies like Planet Labs, Umbra, and HawkEye 360; GPS; miniature CubeSats for education and research; and military/defense satellites.

Loading next visibility...
Identifier
64055, 2025-104A
Orbit
LEO
Country
Flag of JPJP / JPN
Related business
Manufacturer
QPS Labs
Mission
Operational Commercial Radar Imaging
Bus & Motor
QSAT, Unknown motor
Mass
~120 kg wet, ~100 kg dry
Launch date (UTC)
2025-05-17 (1 year ago)
Launch vehicle
ELECTRON
Launch site
Rocket Lab Launch Complex (RLLC)
Object type
Payload
Rocket body
Debris
Shape & HBR
Hex Cyl + 2 Pan + 1 Dish, 14.5 m
Radar Cross Section
1.179 m², Large (>1 m²)

Expand to show TLE details & history
Last TLE update: 8 hours ago

TLE from 8 hours ago
0 QPS-SAR-10 WADATSUMI-I
1 64055U 25104A   26171.51397756  .00003416  00000-0  27143-3 0  9996
2 64055  42.0038 260.6331 0012879 354.8243   5.2448 15.01800022 59934
Epoch: 2026-06-20T12:20Z
TLE epoch observation values (Epoch: 2026-06-20T12:20:07.661Z)
Latitude
-0.00003°
Longitude
166.87363°
Altitude
552.116 km
Speed
7.592 km/s
True Right ascension
17h 22m 31s
True Declination
0° 00' 00"
Sunlit
Object was in full shadow at epoch
Visualization orbit readout
Latitude
Unknown
Longitude
Unknown
Altitude
Unknown
Speed
Unknown
Apparent Right ascension
Unknown
Apparent Declination
Unknown
Sunlit
N/A
Visualization observer readout
Local Sidereal Time
07:19:16
Azimuth
Unknown
Elevation
Unknown
Doppler factor
Unknown
Orbital elements
Apogee altitude
572.374 km
Perigee altitude
554.494 km
Semi-major axis
6,941.571 km
Eccentricity
0.00129
Inclination
42.0038°
RAAN
260.6331°
Arg. of periapsis
354.8243°
True anomaly
5.25831°
Mean anomaly
5.2448°
Eccentric anomaly
5.25155°
Mean motion
3.75281 °/min
Orbital period
95.93 mins
BSTAR
0.00027143
Loading maneuver chart data...
Computing Atmospheric mass density...
Loading historical data...
Loading historical data...
Loading historical data...
Loading historical data...
Loading historical data...
Loading historical data...
Loading historical data...
Other satellites on launch #104 in the year 2025 (2025-05-17 UTC)

Documentation

Showing up to 5 results
|